Location: Unspecified
(52.4292°N, 19.3359°E)
Time: 19:56:32
(UTC+02:00)

Tiros 1 - Pass Details

Date: 21 May 2024
Orbit: 624 x 657 km, 48.4° (Epoch: 15 June)

Event Time Altitude Azimuth Distance (km) Brightness Sun altitude
Rises 16:51:15 0° 272° (W) 2,983 11.6 32.4°
Reaches altitude 10° 16:53:41 10° 266° (W) 2,069 11.3 32.0°
Maximum altitude 16:58:13 44° 195° (SSW) 907 8.5 31.3°
Drops below altitude 10° 17:02:43 10° 124° (ESE) 2,055 9.4 30.7°
Sets 17:05:07 0° 118° (ESE) 2,960 10.1 30.3°
